Date_and_time,latitude,longitude,wind_speed,RelWindDirFrom,WindDirFrom,air_pressure,air_temperature,relative_humidity,Temp,platform_speed_wrt_ground,air_pressure_at_mean_sea_level,platform_orientation
2019-03-25 23:40,50.630445,-96.98077,7.1,8.0,120,1001.42,-3.5,58,1.51,0.0,1029.97,304.8
2019-03-25 23:50,50.6304466666667,-96.9807683333333,7.7,8.9,121,1001.40,-3.7,56,1.51,0.0,1029.97,304.8
2019-03-26 00:00,50.6304466666667,-96.9807683333333,6.7,8.1,124,1001.29,-4.0,57,1.52,0.0,1029.88,14.5
2019-03-26 00:10,50.6304366666667,-96.9807566666667,4.1,6.4,139,1001.29,-4.8,61,1.53,0.0,1029.94,14.5
2019-03-26 00:20,50.6304433333333,-96.9807666666667,4.2,6.2,156,1001.20,-5.4,61,1.53,0.0,1029.88,14.5
2019-03-26 00:30,50.6304483333333,-96.9807733333333,3.6,5.3,162,1001.17,-5.5,61,1.54,0.0,1029.83,14.5
2019-03-26 00:40,50.6304483333333,-96.98077,5.6,6.9,165,1001.06,-5.9,63,1.54,0.0,1029.75,14.5
2019-03-26 00:50,50.6304466666667,-96.9807666666667,6.1,7.1,164,1000.98,-6.1,62,1.55,0.0,1029.69,14.5
2019-03-26 01:00,50.6304466666667,-96.9807683333333,6.2,7.2,160,1000.84,-6.2,62,1.56,0.0,1029.56,12.6
2019-03-26 01:10,50.6304466666667,-96.9807666666667,5.1,6.2,158,1000.77,-6.5,64,1.56,0.0,1029.51,12.6
2019-03-26 01:20,50.6304466666667,-96.980765,5.0,6.2,170,1000.69,-6.8,67,1.56,0.0,1029.46,12.6
2019-03-26 01:30,50.6304466666667,-96.980765,6.9,7.6,171,1000.55,-6.8,64,1.57,0.0,1029.33,12.6
2019-03-26 01:40,50.6304383333333,-96.9807716666667,6.2,7.5,176,1000.49,-6.8,66,1.56,0.0,1029.27,12.6
2019-03-26 01:50,50.6304533333333,-96.9807816666667,5.6,6.4,178,1000.34,-6.9,68,1.56,0.0,1029.14,12.6
2019-03-26 02:00,50.6304516666667,-96.9807733333333,5.5,6.8,190,1000.24,-7.1,68,1.57,0.0,1029.08,360.0
2019-03-26 02:10,50.63045,-96.9807666666667,6.1,7.5,197,1000.22,-5.7,63,1.57,0.0,1029.02,360.0
2019-03-26 02:20,50.63045,-96.9807683333333,4.9,5.8,183,1000.20,-5.5,65,1.57,0.0,1029.00,360.0
2019-03-26 02:30,50.6304466666667,-96.9807666666667,4.9,5.6,192,1000.19,-4.8,63,1.57,0.0,1028.97,360.0
2019-03-26 02:40,50.63045,-96.980775,5.5,6.8,193,1000.20,-4.8,64,1.57,0.0,1028.99,360.0
2019-03-26 02:50,50.6304583333333,-96.9807716666667,6.1,7.3,198,1000.14,-3.9,61,1.56,0.0,1028.89,360.0
2019-03-26 03:00,50.630455,-96.9807766666667,6.2,7.0,195,1000.19,-3.6,60,1.55,0.0,1028.94,311.7
2019-03-26 03:10,50.6304516666667,-96.980775,5.5,6.2,190,1000.18,-3.6,61,1.55,0.0,1028.94,311.7
2019-03-26 03:20,50.6304533333333,-96.980775,6.4,7.3,189,1000.19,-3.7,63,1.54,0.0,1028.96,311.7
2019-03-26 03:30,50.6304183333333,-96.9807916666667,6.5,7.4,191,1000.16,-3.9,65,1.53,0.0,1028.94,311.7
2019-03-26 03:40,50.63044,-96.9807833333333,6.3,7.0,185,1000.06,-4.0,67,1.53,0.0,1028.85,311.7
2019-03-26 03:50,50.6304366666667,-96.980775,6.4,6.9,181,999.92,-4.4,67,1.53,0.0,1028.73,311.7
2019-03-26 04:00,50.6304416666667,-96.9807783333333,6.0,6.7,181,999.84,-4.6,66,1.53,0.0,1028.59,246.4
2019-03-26 04:10,50.6304616666667,-96.9808166666667,6.0,6.6,182,999.75,-5.1,66,1.53,0.0,1028.52,246.4
2019-03-26 04:20,50.6304616666667,-96.9807933333333,5.8,6.5,185,999.79,-5.0,66,1.53,0.0,1028.51,246.4
2019-03-26 04:30,50.63044,-96.9807816666667,6.2,6.9,187,999.75,-5.1,67,1.53,0.0,1028.48,246.4
2019-03-26 04:40,50.63044,-96.98078,5.7,6.3,189,999.67,-5.0,66,1.53,0.0,1028.34,246.4
2019-03-26 04:50,50.63044,-96.980775,5.1,6.3,181,999.58,-5.4,68,1.52,0.0,1028.25,246.4
2019-03-26 05:00,50.63044,-96.9807733333333,6.1,6.7,188,999.44,-5.5,68,1.51,0.0,1028.11,360.0
2019-03-26 05:10,50.63044,-96.980775,5.7,6.3,182,999.28,-5.5,68,1.51,0.0,1027.95,360.0
2019-03-26 05:20,50.6304383333333,-96.980775,5.3,6.2,181,999.21,-6.2,71,1.51,0.0,1027.93,360.0
2019-03-26 05:30,50.63043,-96.98078,5.9,6.6,182,999.08,-6.5,71,1.51,0.0,1027.82,360.0
2019-03-26 05:40,50.6304266666667,-96.98078,6.0,6.7,173,998.95,-6.6,71,1.51,0.0,1027.70,360.0
2019-03-26 05:50,50.6304383333333,-96.9807766666667,6.7,8.0,167,998.82,-6.9,73,1.50,0.0,1027.61,360.0
2019-03-26 06:00,50.63044,-96.9807733333333,7.9,8.5,171,998.58,-7.4,76,1.50,0.0,1027.42,142.0
2019-03-26 06:10,50.63043,-96.9807783333333,8.1,8.9,170,998.40,-7.5,77,1.50,0.0,1027.23,142.0
2019-03-26 06:20,50.630435,-96.9807766666667,7.3,8.3,175,998.28,-7.4,76,1.50,0.0,1027.10,142.0
2019-03-26 06:30,50.6304366666667,-96.9807783333333,7.3,8.0,180,998.08,-7.5,75,1.50,0.0,1026.89,142.0
2019-03-26 06:40,50.6304383333333,-96.9807766666667,7.3,7.8,180,997.91,-7.2,72,1.50,0.0,1026.73,142.0
2019-03-26 06:50,50.63044,-96.9807766666667,7.2,7.9,180,997.81,-6.7,70,1.49,0.0,1026.60,142.0
2019-03-26 07:00,50.6304566666667,-96.9808033333333,7.5,8.5,181,997.68,-6.5,67,1.50,0.0,1026.46,310.6
2019-03-26 07:10,50.6304516666667,-96.980785,7.5,8.9,179,997.57,-6.4,67,1.50,0.0,1026.38,310.6
2019-03-26 07:20,50.63045,-96.9807816666667,7.6,8.7,179,997.46,-6.2,66,1.50,0.0,1026.26,310.6
2019-03-26 07:30,50.6304516666667,-96.98076,7.6,9.1,180,997.34,-6.1,66,1.50,0.0,1026.15,310.6
2019-03-26 07:40,50.6304583333333,-96.98078,7.8,8.8,175,997.23,-6.1,67,1.48,0.0,1026.05,310.6
2019-03-26 07:50,50.6304533333333,-96.9807766666667,8.0,9.4,177,997.15,-6.0,67,1.47,0.0,1025.99,310.6
2019-03-26 08:00,50.6304483333333,-96.980775,7.6,9.5,179,997.03,-5.7,67,1.47,0.0,1025.86,38.0
2019-03-26 08:10,50.6304416666667,-96.9807766666667,6.9,8.4,170,996.90,-6.1,70,1.47,0.0,1025.74,38.0
2019-03-26 08:20,50.6304333333333,-96.9807666666667,7.6,8.6,165,996.74,-6.8,73,1.46,0.0,1025.62,38.0
2019-03-26 08:30,50.6304666666667,-96.980775,8.0,10.4,162,996.56,-7.3,74,1.46,0.0,1025.44,38.0
2019-03-26 08:40,50.630445,-96.980775,7.1,8.1,164,996.54,-7.7,77,1.46,0.0,1025.42,38.0
2019-03-26 08:50,50.6304416666667,-96.9807783333333,7.5,9.1,167,996.39,-7.4,76,1.46,0.0,1025.24,38.0
2019-03-26 09:00,50.63044,-96.9807783333333,7.9,9.3,165,996.27,-7.4,76,1.46,0.0,1025.10,270.0
2019-03-26 09:10,50.63044,-96.9807716666667,7.9,9.5,168,996.22,-7.0,74,1.46,0.0,1025.02,270.0
2019-03-26 09:20,50.63044,-96.9807716666667,8.5,12.4,174,996.06,-6.3,71,1.45,0.0,1024.82,270.0
2019-03-26 09:30,50.6304416666667,-96.9807683333333,11.2,13.6,183,995.94,-4.8,65,1.44,0.0,1024.61,270.0
2019-03-26 09:40,50.6304416666667,-96.98077,12.2,15.6,184,995.82,-4.6,64,1.44,0.0,1024.47,270.0
2019-03-26 09:50,50.6304433333333,-96.98077,11.0,13.9,188,995.84,-4.6,65,1.45,0.0,1024.48,270.0
2019-03-26 10:00,50.6304433333333,-96.98077,11.5,15.6,187,995.81,-4.6,66,1.45,0.0,1024.47,112.7
2019-03-26 10:10,50.630445,-96.9807683333333,10.5,13.7,185,995.69,-4.6,68,1.46,0.0,1024.38,112.7
2019-03-26 10:20,50.6304433333333,-96.9807683333333,11.0,13.7,182,995.35,-4.6,69,1.46,0.0,1024.05,112.7
2019-03-26 10:30,50.6304433333333,-96.9807683333333,12.0,14.5,183,995.13,-4.4,68,1.47,0.0,1023.84,112.7
2019-03-26 10:40,50.6304433333333,-96.9807683333333,12.0,15.3,182,995.03,-4.2,69,1.47,0.0,1023.72,112.7
2019-03-26 10:50,50.6304433333333,-96.9807683333333,11.9,15.7,181,994.92,-4.1,69,1.46,0.0,1023.59,112.7
2019-03-26 11:00,50.6304433333333,-96.9807683333333,11.4,14.7,177,994.81,-4.0,69,1.45,0.0,1023.46,167.4
2019-03-26 11:10,50.630445,-96.9807683333333,11.9,15.5,179,994.80,-3.9,69,1.44,0.0,1023.39,167.4
2019-03-26 11:20,50.63044,-96.980775,11.9,14.9,178,994.69,-3.8,69,1.45,0.0,1023.20,167.4
2019-03-26 11:30,50.6304466666667,-96.9807633333333,12.2,15.5,176,994.48,-3.8,69,1.45,0.0,1022.97,167.4
2019-03-26 11:40,50.6304483333333,-96.9807666666667,12.3,15.5,178,994.40,-3.7,69,1.45,0.0,1022.88,167.4
2019-03-26 11:50,50.6304483333333,-96.9807633333333,12.6,16.7,177,994.29,-3.7,70,1.46,0.0,1022.77,167.4
2019-03-26 12:00,50.6304483333333,-96.9807633333333,12.2,16.5,177,994.18,-3.7,70,1.46,0.0,1022.66,68.5
2019-03-26 12:10,50.63045,-96.9807616666667,11.5,14.5,177,994.20,-3.8,71,1.45,0.0,1022.68,68.5
2019-03-26 12:20,50.63045,-96.9807616666667,9.5,13.0,177,994.18,-3.9,73,1.44,0.0,1022.66,68.5
2019-03-26 12:30,50.6304433333333,-96.9807533333333,9.8,12.8,169,994.03,-3.9,73,1.43,0.0,1022.50,68.5
2019-03-26 12:40,50.63045,-96.9807666666667,10.4,12.3,155,993.87,-5.0,80,1.43,0.0,1022.38,68.5
2019-03-26 12:50,50.6304516666667,-96.980765,9.2,10.9,149,993.80,-5.5,85,1.43,0.0,1022.33,68.5
2019-03-26 13:00,50.6304516666667,-96.9807633333333,8.6,10.1,151,993.80,-5.8,89,1.43,0.0,1022.34,360.0
2019-03-26 13:10,50.6304516666667,-96.9807633333333,7.2,9.4,162,993.82,-5.4,90,1.44,0.0,1022.34,360.0
2019-03-26 13:20,50.6304533333333,-96.980765,9.9,15.1,177,993.63,-4.1,81,1.45,0.0,1022.07,360.0
2019-03-26 13:30,50.6304533333333,-96.9807633333333,11.4,16.0,179,993.50,-3.5,78,1.44,0.0,1021.90,360.0
2019-03-26 13:40,50.6304533333333,-96.980765,11.6,15.6,178,993.39,-3.4,79,1.44,0.0,1021.78,360.0
2019-03-26 13:50,50.6304533333333,-96.980765,12.4,16.0,179,993.19,-3.3,79,1.43,0.0,1021.58,360.0
2019-03-26 14:00,50.6304516666667,-96.9807666666667,12.6,16.3,182,993.13,-3.2,80,1.42,0.0,1021.51,360.0
2019-03-26 14:10,50.63045,-96.9807666666667,13.2,16.9,180,992.93,-3.1,81,1.42,0.0,1021.30,360.0
2019-03-26 14:20,50.6304483333333,-96.9807666666667,14.6,17.9,181,992.73,-3.0,81,1.42,0.0,1021.09,360.0
2019-03-26 14:30,50.630435,-96.9807766666667,14.0,19.8,182,992.67,-2.8,82,1.42,0.0,1021.08,360.0
2019-03-26 14:40,50.6304383333333,-96.9807783333333,13.1,17.8,184,992.59,-2.7,83,1.42,0.0,1021.02,360.0
2019-03-26 14:50,50.6304366666667,-96.9807783333333,14.2,18.8,180,992.36,-2.4,84,1.43,0.0,1020.79,360.0
2019-03-26 15:00,50.6304383333333,-96.9807766666667,15.1,19.5,183,992.22,-2.2,84,1.42,0.0,1020.61,228.3
2019-03-26 15:10,50.6304383333333,-96.9807766666667,14.7,19.6,182,992.02,-2.0,85,1.42,0.0,1020.32,228.3
2019-03-26 15:20,50.63044,-96.9807783333333,13.6,17.4,182,991.96,-1.8,85,1.42,0.0,1020.22,228.3
2019-03-26 15:30,50.6304416666667,-96.9807783333333,13.1,19.8,182,992.11,-1.6,85,1.42,0.0,1020.35,228.3
2019-03-26 15:40,50.63044,-96.9807766666667,13.6,18.8,181,991.99,-1.6,86,1.41,0.0,1020.23,228.3
2019-03-26 15:50,50.63044,-96.9807766666667,15.3,19.5,181,991.78,-1.4,85,1.41,0.0,1019.99,228.3
2019-03-26 16:00,50.63044,-96.9807766666667,14.4,17.3,180,991.65,-1.2,86,1.41,0.0,1019.84,194.5
2019-03-26 16:10,50.63044,-96.9807766666667,13.7,16.9,182,991.62,-1.1,87,1.42,0.0,1019.80,194.5
2019-03-26 16:20,50.63044,-96.9807766666667,13.2,16.8,182,991.60,-0.8,87,1.42,0.0,1019.76,194.5
2019-03-26 16:30,50.6304383333333,-96.9807766666667,13.9,18.3,183,991.44,-0.6,89,1.43,0.0,1019.57,194.5
2019-03-26 16:40,50.6304416666667,-96.9807733333333,13.7,18.3,183,991.32,-0.5,89,1.44,0.0,1019.43,194.5
2019-03-26 16:50,50.63044,-96.9807716666667,13.4,16.0,182,991.26,-0.4,90,1.44,0.0,1019.35,194.5
2019-03-26 17:00,50.6304416666667,-96.9807716666667,15.1,19.7,182,991.13,-0.3,91,1.43,0.0,1019.21,360.0
2019-03-26 17:10,50.630415,-96.9807633333333,16.5,21.9,183,990.85,-0.3,91,1.43,0.0,1018.91,360.0
2019-03-26 17:20,50.630425,-96.9807666666667,13.6,19.4,184,990.78,-0.1,92,1.43,0.0,1018.82,360.0
2019-03-26 17:30,50.6304283333333,-96.98078,14.8,21.2,182,990.62,0.2,93,1.43,0.0,1018.63,360.0
2019-03-26 17:40,50.6304383333333,-96.9807716666667,13.9,20.1,183,990.54,0.4,93,1.43,0.0,1018.52,360.0
2019-03-26 17:50,50.6304383333333,-96.9807683333333,15.3,23.2,184,990.38,0.7,93,1.44,0.0,1018.34,360.0
2019-03-26 18:00,50.6304383333333,-96.9807683333333,16.9,24.6,187,990.16,0.9,92,1.45,0.0,1018.09,90.0
2019-03-26 18:10,50.6304383333333,-96.98077,18.8,24.3,186,990.01,1.0,92,1.46,0.0,1017.92,90.0
2019-03-26 18:20,50.63044,-96.98077,17.4,24.0,187,990.05,0.9,93,1.46,0.0,1017.96,90.0
2019-03-26 18:30,50.63044,-96.98077,15.5,20.4,188,989.94,0.9,93,1.45,0.0,1017.84,90.0
2019-03-26 18:40,50.6304416666667,-96.9807716666667,16.5,23.3,189,989.73,1.0,93,1.44,0.0,1017.61,90.0
2019-03-26 18:50,50.6304433333333,-96.980775,16.7,22.5,187,989.63,1.0,94,1.44,0.0,1017.51,90.0
2019-03-26 19:00,50.6304433333333,-96.980775,17.3,22.7,186,989.49,1.0,95,1.44,0.0,1017.37,90.0
2019-03-26 19:10,50.6304766666667,-96.9807733333333,18.0,24.3,186,989.41,1.1,95,1.44,0.0,1017.26,90.0
2019-03-26 19:20,50.6304383333333,-96.9807816666667,18.8,26.2,185,989.26,1.2,96,1.45,0.0,1017.09,90.0
2019-03-26 19:30,50.6304483333333,-96.9807783333333,17.4,23.4,186,989.26,1.3,96,1.46,0.0,1017.07,90.0
2019-03-26 19:40,50.6304483333333,-96.9807716666667,18.0,24.1,184,989.12,1.3,97,1.46,0.0,1016.92,90.0
2019-03-26 19:50,50.6304466666667,-96.98077,16.9,23.2,183,989.02,1.3,97,1.47,0.0,1016.81,90.0
2019-03-26 20:00,50.630445,-96.98076,17.3,23.3,184,988.86,1.4,96,1.47,0.0,1016.63,90.0
2019-03-26 20:10,50.6304433333333,-96.980765,16.7,21.9,189,988.74,1.5,96,1.47,0.0,1016.50,90.0
2019-03-26 20:20,50.63045,-96.98078,16.5,20.2,184,988.50,1.6,95,1.47,0.0,1016.25,90.0
2019-03-26 20:30,50.6304416666667,-96.9807633333333,17.1,21.6,181,988.26,1.7,94,1.47,0.0,1015.99,90.0
2019-03-26 20:40,50.63044,-96.980765,16.4,22.5,186,988.17,1.8,94,1.48,0.0,1015.89,90.0
2019-03-26 20:50,50.63044,-96.9807683333333,18.5,26.0,180,988.00,1.8,94,1.49,0.0,1015.72,90.0
2019-03-26 21:00,50.63044,-96.9807683333333,18.8,25.9,183,987.98,1.8,94,1.50,0.0,1015.69,0.0
2019-03-26 21:10,50.63044,-96.98077,17.3,21.9,181,987.94,1.8,95,1.50,0.0,1015.65,0.0
2019-03-26 21:20,50.6304383333333,-96.9807683333333,16.2,23.7,184,987.82,1.9,96,1.50,0.0,1015.52,0.0
2019-03-26 21:30,50.6304383333333,-96.98077,18.3,23.7,181,987.65,2.0,95,1.51,0.0,1015.34,0.0
2019-03-26 21:40,50.6304383333333,-96.9807683333333,17.6,23.5,181,987.59,2.1,95,1.50,0.0,1015.27,0.0
2019-03-26 21:50,50.6304416666667,-96.9807566666667,16.8,22.9,183,987.49,2.1,96,1.51,0.0,1015.16,0.0
2019-03-26 22:00,50.6304416666667,-96.9807633333333,16.4,20.7,184,987.40,2.1,97,1.51,0.0,1015.06,90.0
2019-03-26 22:10,50.6304416666667,-96.9807616666667,15.4,22.8,184,987.30,2.1,98,1.52,0.0,1014.96,90.0
2019-03-26 22:20,50.6304383333333,-96.98076,16.2,21.4,180,987.08,2.2,97,1.53,0.0,1014.73,90.0
2019-03-26 22:30,50.6304366666667,-96.98076,17.5,23.2,182,986.85,2.2,96,1.53,0.0,1014.48,90.0
2019-03-26 22:40,50.6304366666667,-96.9807583333333,13.5,16.5,179,986.76,2.2,97,1.54,0.0,1014.38,90.0
2019-03-26 22:50,50.6304366666667,-96.98076,13.8,17.6,177,986.64,2.3,97,1.54,0.0,1014.27,90.0
2019-03-26 23:00,50.6304366666667,-96.98076,14.7,20.0,181,986.57,2.3,97,1.55,0.0,1014.19,142.0
2019-03-26 23:10,50.6304383333333,-96.98076,14.8,20.8,185,986.58,2.3,98,1.54,0.0,1014.19,142.0
2019-03-26 23:20,50.6304383333333,-96.98076,15.8,21.7,185,986.61,2.2,99,1.53,0.0,1014.23,142.0
2019-03-26 23:30,50.6304383333333,-96.98076,14.5,18.4,185,986.61,2.0,99,1.53,0.0,1014.23,142.0
2019-03-26 23:40,50.6304383333333,-96.9807616666667,15.9,23.0,185,986.45,2.0,99,1.53,0.0,1014.07,142.0
2019-03-26 23:50,50.63044,-96.9807633333333,13.7,19.4,185,986.45,1.8,99,1.53,0.0,1014.07,142.0
